Weather History for Myrtle Beach, SC

Change the Weather History Date:

Thursday, January 3, 2013

  Actual Average Record
Temperature  
Mean Temperature 40 °F -  
Max Temperature 46 °F 55 °F 79 °F (1952)
Min Temperature 35 °F 35 °F 19 °F (2001)
Degree Days  
Heating Degree Days 24    
Moisture  
Dew Point 41 °F    
Average Humidity 92    
Maximum Humidity 100    
Minimum Humidity 81    
Precipitation  
Precipitation 0.00 in - - ()
Sea Level Pressure  
Sea Level Pressure 30.17 in    
Wind  
Wind Speed 8 mph (NNE)    
Max Wind Speed 12 mph    
Max Gust Speed -    
Visibility 7 miles    
Events Rain    
Averages and records for this station are not official NWS values.
T = Trace of Precipitation, MM = Missing Value Source: NWS Daily Summary

Daily Weather History Graph

Daily Weather History Graph

Search for Another Location

Airport:

Trip Planner

Search our weather history database for the weather conditions in past years. The results will help you decide how hot, cold, wet, or windy it might be!

Date:

Astronomy

Jan. 03, 2013 Rise Set
Actual Time 7:20 AM EST 5:20 PM EST
Civil Twilight 6:53 AM EST 5:47 PM EST
Nautical Twilight 6:22 AM EST 6:18 PM EST
Astronomical Twilight 5:52 AM EST 6:48 PM EST
Moon 11:33 PM EST (1/3) 10:50 AM EST (1/3)
Length of Visible Light 10h 54m
Length of Day
9h 59m
Waning Gibbous, 65% of the Moon is Illuminated
Jan 3
Waning Gibbous
Jan 4
Last Quarter
Jan 11
New
Jan 18
First Quarter
Jan 26
Full

Hourly Weather History & Observations

Time (EST) Temp. Windchill Dew Point Humidity Pressure Visibility Wind Dir Wind Speed Gust Speed Precip Events Conditions
12:15 AM 46.4 °F 41.1 °F 44.6 °F 93% 30.14 in 10.0 mi NE 11.5 mph - N/A   Partly Cloudy
12:35 AM 46.4 °F 41.9 °F 44.6 °F 93% 30.15 in 10.0 mi NE 9.2 mph - N/A   Scattered Clouds
12:55 AM 46.4 °F 41.5 °F 44.6 °F 93% 30.14 in 10.0 mi NE 10.4 mph - N/A   Mostly Cloudy
1:15 AM 46.4 °F 41.9 °F 44.6 °F 93% 30.14 in 10.0 mi NNE 9.2 mph - N/A   Scattered Clouds
1:35 AM 44.6 °F 39.2 °F 42.8 °F 93% 30.12 in 10.0 mi NNE 10.4 mph - N/A   Clear
1:55 AM 44.6 °F 40.7 °F 42.8 °F 93% 30.12 in 10.0 mi NE 6.9 mph - N/A   Clear
2:15 AM 44.6 °F 41.4 °F 41.0 °F 87% 30.12 in 10.0 mi NNE 5.8 mph - N/A   Scattered Clouds
2:35 AM 44.6 °F 40.7 °F 41.0 °F 87% 30.14 in 10.0 mi NNE 6.9 mph - N/A   Mostly Cloudy
2:55 AM 44.6 °F 39.7 °F 41.0 °F 87% 30.13 in 10.0 mi NNE 9.2 mph - N/A   Overcast
3:15 AM 44.6 °F 40.7 °F 41.0 °F 87% 30.13 in 10.0 mi NNE 6.9 mph - N/A   Overcast
3:35 AM 44.6 °F 41.4 °F 41.0 °F 87% 30.13 in 10.0 mi NNE 5.8 mph - N/A   Overcast
3:55 AM 44.6 °F 40.7 °F 42.8 °F 93% 30.13 in 10.0 mi NNE 6.9 mph - N/A   Overcast
4:15 AM 44.6 °F 39.7 °F 39.2 °F 81% 30.15 in 10.0 mi North 9.2 mph - N/A   Overcast
4:35 AM 44.6 °F 40.2 °F 42.8 °F 93% 30.14 in 10.0 mi NNE 8.1 mph - N/A   Overcast
4:55 AM 44.6 °F 40.7 °F 42.8 °F 93% 30.15 in 10.0 mi NNE 6.9 mph - N/A   Overcast
5:15 AM 44.6 °F 41.4 °F 42.8 °F 93% 30.15 in 10.0 mi NNE 5.8 mph - N/A   Overcast
5:35 AM 44.6 °F 42.2 °F 41.0 °F 87% 30.15 in 10.0 mi NNE 4.6 mph - N/A   Overcast
5:55 AM 44.6 °F 40.2 °F 42.8 °F 93% 30.15 in 10.0 mi North 8.1 mph - N/A   Overcast
6:45 AM 44.6 °F 39.7 °F 41.0 °F 87% 30.16 in 10.0 mi NE 9.2 mph - N/A   Overcast
6:50 AM 44.6 °F 40.2 °F 42.8 °F 93% 30.14 in 10.0 mi NNE 8.1 mph - N/A   Mostly Cloudy
8:45 AM 42.8 °F 38.0 °F 41.0 °F 93% 30.19 in 6.0 mi ENE 8.1 mph - N/A   Overcast
9:45 AM 42.8 °F 38.6 °F 42.8 °F 100% 30.20 in 5.0 mi NNE 6.9 mph - N/A Rain Light Rain
10:15 AM 42.8 °F 38.6 °F 42.8 °F 100% 30.20 in 5.0 mi NE 6.9 mph - N/A Rain Light Rain
11:45 AM 46.4 °F - 44.6 °F 93% 30.17 in 5.0 mi Calm Calm - N/A Rain Light Rain
12:45 PM 46.4 °F 42.9 °F 42.8 °F 87% 30.17 in 5.0 mi North 6.9 mph - N/A Rain Light Rain
1:03 PM 46.4 °F 42.4 °F 42.8 °F 87% 30.16 in 3.0 mi North 8.1 mph - N/A Rain Light Rain
1:45 PM 44.6 °F 40.7 °F 42.8 °F 93% 30.13 in 3.0 mi NNW 6.9 mph - N/A Rain Light Rain
2:50 PM 44.6 °F 40.2 °F 44.6 °F 100% 30.14 in 4.0 mi NNE 8.1 mph - N/A Rain Light Rain
3:45 PM 44.6 °F 38.8 °F 44.6 °F 100% 30.16 in 4.0 mi NNE 11.5 mph - N/A Rain Light Rain
4:45 PM 44.6 °F 38.8 °F 42.8 °F 93% 30.18 in 4.0 mi North 11.5 mph - N/A   Overcast
5:45 PM 44.6 °F 38.8 °F 42.8 °F 93% 30.21 in 4.0 mi North 11.5 mph - N/A   Overcast
6:45 PM 42.8 °F 37.5 °F 41.0 °F 93% 30.22 in 4.0 mi North 9.2 mph - N/A   Overcast
7:50 PM 42.8 °F 37.0 °F 39.2 °F 87% 30.24 in 6.0 mi North 10.4 mph - N/A   Overcast
8:45 PM 42.8 °F 36.6 °F 39.2 °F 87% 30.25 in 5.0 mi North 11.5 mph - N/A   Mostly Cloudy
9:45 PM 41.0 °F 35.2 °F 37.4 °F 87% 30.27 in 7.0 mi North 9.2 mph - N/A   Mostly Cloudy
10:55 PM 37.4 °F 34.9 °F 35.6 °F 93% 30.27 in 5.0 mi NNW 3.5 mph - N/A   Clear
11:15 PM 35.6 °F 31.7 °F 33.8 °F 93% 30.27 in 3.0 mi NNW 4.6 mph - N/A   Clear
11:35 PM 35.6 °F 31.7 °F 33.8 °F 93% 30.27 in 4.0 mi NNW 4.6 mph - N/A   Clear
11:55 PM 37.4 °F 33.8 °F 35.6 °F 93% 30.27 in 4.0 mi NNW 4.6 mph - N/A   Clear